FW8545 Weather Reports


time (UTC)temp
C
wind
direction
speed
KPH
gust
KPH
rain 1hr
cm
rain 24hr
cm
rain mn
cm
humidity
%
barometer
mb
20260503052015 10 82 0.0 0.0 0.00 0.00 0.00 58 1013.6
20260503051029 11 82 0.0 0.0 0.00 0.00 0.00 59 1013.6
20260503050037 11 82 0.0 0.0 0.00 0.00 0.00 58 1013.7
20260503045059 11 82 0.0 0.0 0.00 0.00 0.00 57 1013.6
20260503044048 12 82 0.0 0.0 0.00 0.00 0.00 55 1013.7
20260503043020 12 82 0.0 0.0 0.00 0.00 0.00 54 1013.6
20260503042009 13 82 0.0 0.0 0.00 0.00 0.00 53 1013.5
20260503040936 13 82 0.0 0.0 0.00 0.00 0.00 52 1013.3
20260503035939 13 82 0.0 0.0 0.00 0.00 0.00 52 1013.3
20260503034947 14 82 0.0 0.0 0.00 0.00 0.00 51 1013.3
20260503034008 15 82 0.0 0.0 0.00 0.00 0.00 50 1013.4
20260503032935 15 82 0.0 0.0 0.00 0.00 0.00 48 1013.3
20260503031920 15 53 0.0 0.0 0.00 0.00 0.00 47 1013.1
20260503030929 16 159 0.0 1.6 0.00 0.00 0.00 45 1013.1
20260503025936 16 61 0.0 0.0 0.00 0.00 0.00 44 1013.1
20260503024936 16 157 0.0 1.6 0.00 0.00 0.00 43 1013.0
20260503023935 17 159 0.0 0.0 0.00 0.00 0.00 42 1013.0
20260503022915 17 41 0.0 0.0 0.00 0.00 0.00 41 1013.0
20260503020708 18 159 0.0 0.0 0.00 0.00 0.00 38 1013.0
20260503015634 18 159 0.0 0.0 0.00 0.00 0.00 37 1013.1
20260503013521 20 154 0.0 0.0 0.00 0.00 0.00 34 1013.3
20260503012459 20 59 0.0 0.0 0.00 0.00 0.00 31 1013.4
20260503011440 21 134 0.0 0.0 0.00 0.00 0.00 30 1013.4
20260503010454 22 115 0.0 0.0 0.00 0.00 0.00 28 1013.4
20260503005422 22 161 0.0 0.0 0.00 0.00 0.00 28 1013.5
20260503004433 22 68 0.0 0.0 0.00 0.00 0.00 28 1013.6
20260503003445 22 70 0.0 0.0 0.00 0.00 0.00 28 1013.8
20260503002424 22 296 0.0 3.2 0.00 0.00 0.00 28 1013.8
20260503001357 22 105 0.0 0.0 0.00 0.00 0.00 29 1013.9
20260503000403 22 240 0.0 0.0 0.00 0.00 0.00 29 1014.0
20260502235418 22 130 0.0 1.6 0.00 0.00 0.00 29 1014.0
20260502234358 21 57 0.0 0.0 0.00 0.00 0.00 31 1014.3
20260502233331 21 161 0.0 0.0 0.00 0.00 0.00 30 1014.6
20260502232331 22 191 0.0 0.0 0.00 0.00 0.00 30 1014.7
20260502231349 21 88 0.0 0.0 0.00 0.00 0.00 31 1014.8
20260502230316 21 105 0.0 3.2 0.00 0.00 0.00 32 1015.0
20260502225251 21 92 0.0 0.0 0.00 0.00 0.00 32 1015.0
20260502224246 21 98 0.0 0.0 0.00 0.00 0.00 31 1015.3
20260502223247 21 70 0.0 1.6 0.00 0.00 0.00 32 1015.5
20260502222300 21 125 0.0 3.2 0.00 0.00 0.00 33 1015.7
20260502221233 20 143 0.0 0.0 0.00 0.00 0.00 33 1015.8
20260502220230 20 86 0.0 0.0 0.00 0.00 0.00 35 1015.8
20260502215237 20 74 0.0 4.8 0.00 0.00 0.00 33 1016.0
20260502213131 20 89 0.0 1.6 0.00 0.00 0.00 34 1016.3
20260502210954 20 49 0.0 4.8 0.00 0.00 0.00 34 1016.6
20260502205955 20 346 0.0 0.0 0.00 0.00 0.00 33 1016.8
20260502204948 20 96 0.0 3.2 0.00 0.00 0.00 35 1017.0
20260502203944 20 103 0.0 0.0 0.00 0.00 0.00 36 1017.0
20260502202918 20 111 0.0 1.6 0.00 0.00 0.00 36 1017.3
20260502201913 19 54 0.0 4.8 0.00 0.00 0.00 36 1017.4
20260502195712 19 73 0.0 0.0 0.00 0.00 0.00 38 1017.9
20260502194641 18 150 0.0 0.0 0.00 0.00 0.00 37 1018.1
20260502193608 18 95 0.0 0.0 0.00 0.00 0.00 38 1018.1
20260502192555 18 67 0.0 1.6 0.00 0.00 0.00 39 1018.3
20260502190433 18 110 0.0 0.0 0.00 0.00 0.00 39 1018.5
20260502185425 17 156 0.0 0.0 0.00 0.00 0.00 40 1018.6
20260502184359 17 70 0.0 1.6 0.00 0.00 0.00 41 1018.8
20260502182251 17 145 0.0 0.0 0.00 0.00 0.00 39 1019.2
20260502181228 17 109 0.0 1.6 0.00 0.00 0.00 40 1019.4
20260502163748 15 89 0.0 0.0 0.00 0.00 0.00 46 1020.3
20260502162715 15 75 0.0 0.0 0.00 0.00 0.00 46 1020.4
20260502161737 14 338 0.0 0.0 0.00 0.00 0.00 48 1020.5
20260502152321 11 275 0.0 0.0 0.00 0.00 0.00 58 1020.7
20260502151314 10 275 0.0 0.0 0.00 0.00 0.00 63 1020.7
20260502150326 10 275 0.0 0.0 0.00 0.00 0.00 64 1020.7
20260502122953 7 295 0.0 0.0 0.00 0.00 0.00 70 1020.1
20260502121939 7 295 0.0 0.0 0.00 0.00 0.00 70 1020.1
20260502120907 8 295 0.0 0.0 0.00 0.00 0.00 69 1020.1
20260502115920 8 295 0.0 0.0 0.00 0.00 0.00 68 1020.1
20260502113758 8 295 0.0 0.0 0.00 0.00 0.00 66 1020.1
20260502110544 9 295 0.0 0.0 0.00 0.00 0.00 65 1020.1
20260502105609 9 295 0.0 0.0 0.00 0.00 0.00 65 1020.1
20260502103436 9 295 0.0 0.0 0.00 0.00 0.00 65 1020.1
20260502102443 9 338 0.0 0.0 0.00 0.00 0.00 65 1020.1
20260502101440 9 313 0.0 0.0 0.00 0.00 0.00 65 1020.0
20260502100409 9 321 0.0 0.0 0.00 0.00 0.00 65 1020.1
20260502080108 10 283 0.0 0.0 0.00 0.00 0.00 62 1019.8
20260502065819 10 259 0.0 0.0 0.00 0.00 0.00 60 1019.8
20260502064835 10 259 0.0 0.0 0.00 0.00 0.00 60 1019.8
20260502062659 10 293 0.0 3.2 0.00 0.00 0.00 59 1019.6
20260502061717 11 283 0.0 1.6 0.00 0.00 0.00 58 1019.7
20260502060719 11 288 0.0 1.6 0.00 0.00 0.00 57 1019.6
20260502054557 11 352 0.0 0.0 0.00 0.00 0.00 55 1019.4
20260502053618 11 352 0.0 0.0 0.00 0.00 0.00 55 1019.4